Regional Weather Roundup
Issued by NWS

Home | Current Version | Previous Version | Graphics & Text | Print | Product List | Glossary On
Versions: 1 2 3 4 5 6 7 8 9 10 11 12 13 14 15 16 17 18 19 20 21 22 23 24 25 26 27 28 29 30 31 32 33 34 35 36 37 38 39 40 41 42 43 44 45 46 47 48 49 50
000
ASUS43 KLMK 011410
RWRKY
KENTUCKY REGIONAL WEATHER ROUNDUP
NATIONAL WEATHER SERVICE LOUISVILLE KY
1000 AM EDT WED APR 01 2015

NOTE "FAIR" INDICATES FEW OR NO CLOUDS BELOW 12,000 FEET
WITH NO SIGNIFICANT WEATHER AND/OR OBSTRUCTIONS TO VISIBILITY.

KYZ001>023-026-027-061>063-070>075-011500-
WESTERN AND SOUTH CENTRAL KENTUCKY

CITY           SKY/WX    TMP DP  RH WIND       PRES   REMARKS
PADUCAH        SUNNY     59  41  51 E7        30.06S
HENDERSON      SUNNY     55  37  50 SE9       30.10R
OWENSBORO      SUNNY     54  40  59 SE8       30.12R
HOPKINSVILLE   SUNNY     57  38  48 E9        30.09R
BOWLING GREEN  SUNNY     54  37  52 E7        30.12R
GLASGOW        SUNNY     54  38  55 E8        30.12S
$$

KYZ024-025-028>034-038-045-046-053-011500-
NORTH CENTRAL KENTUCKY

CITY           SKY/WX    TMP DP  RH WIND       PRES   REMARKS
LOUISVILLE/SDF MOSUNNY   51  38  60 SE6       30.14F
LOUISVILLE/LOU SUNNY     51  38  60 VRB6      30.15S
FORT KNOX      SUNNY     52  37  58 SE6       30.11S
$$

KYZ035>037-039>044-047>052-055>060-089>105-011500-
NORTHEAST KENTUCKY

CITY           SKY/WX    TMP DP  RH WIND       PRES   REMARKS
LEXINGTON      SUNNY     49  36  61 S8        30.16R
COVINGTON      SUNNY     47  35  63 S9        30.15R
FRANKFORT      SUNNY     49  37  63 S3        30.15R
$$

KYZ054-064>069-076>088-106>120-011500-
SOUTHEAST KENTUCKY

CITY           SKY/WX    TMP DP  RH WIND       PRES   REMARKS
JACKSON        SUNNY     46  34  62 CALM      30.16R
LONDON         SUNNY     51  33  50 MISG      30.15R
SOMERSET       SUNNY     50  36  57 E5        30.15S
MIDDLESBORO    SUNNY     51  38  61 CALM      30.15S
MONTICELLO     SUNNY     53  38  56 SE9       30.16S
$$




USA.gov is the U.S. government's official web portal to all federal, state and local government web resources and services.